DW2819 Weather Reports


time (UTC)temp
C
wind
direction
speed
KPH
gust
KPH
rain 1hr
cm
rain 24hr
cm
rain mn
cm
humidity
%
barometer
mb
20260902192852 14 55 0.0 3.2 0.00 0.00 0.00 92 1007.9
20260902191851 13 18 1.6 4.8 0.00 0.00 0.00 92 1008.0
20260902190852 13 76 0.0 1.6 0.00 0.00 0.00 91 1007.8
20260902190354 13 71 0.0 3.2 0.00 0.00 0.00 91 1007.8
20260902185851 13 127 0.0 3.2 0.00 0.00 0.00 91 1007.8
20260902185351 13 78 0.0 1.6 0.00 0.00 0.00 90 1007.9
20260902184351 13 54 0.0 0.0 0.00 0.00 0.00 89 1008.0
20260902183851 13 54 0.0 0.0 0.00 0.00 0.00 88 1008.0
20260902183352 13 54 0.0 0.0 0.00 0.00 0.00 88 1007.9
20260902182855 13 54 0.0 0.0 0.00 0.00 0.00 88 1008.0
20260902182351 13 54 0.0 0.0 0.00 0.00 0.00 88 1008.0
20260902181849 14 54 0.0 0.0 0.00 0.00 0.00 88 1008.0
20260902181349 14 54 0.0 0.0 0.00 0.00 0.00 87 1007.9
20260902180848 14 54 0.0 0.0 0.00 0.00 0.00 87 1008.0
20260902180348 14 54 0.0 0.0 0.00 0.00 0.00 86 1008.0
20260902175847 14 54 0.0 0.0 0.00 0.00 0.00 86 1008.0
20260902175349 14 54 0.0 0.0 0.00 0.00 0.00 85 1008.0
20260902174850 14 54 0.0 0.0 0.00 0.00 0.00 84 1008.1
20260902174348 14 54 0.0 0.0 0.00 0.00 0.00 83 1008.0
20260902173849 14 54 0.0 0.0 0.00 0.00 0.00 83 1008.0
20260902173348 15 54 0.0 0.0 0.00 0.00 0.00 82 1008.0
20260902172849 15 54 0.0 0.0 0.00 0.00 0.00 82 1007.9
20260902172351 15 54 0.0 0.0 0.00 0.00 0.00 81 1007.9
20260902171853 15 54 0.0 0.0 0.00 0.00 0.00 81 1007.9
20260902170353 15 54 0.0 0.0 0.00 0.00 0.00 79 1007.8
20260902165852 15 54 0.0 0.0 0.00 0.00 0.00 80 1007.8
20260902165354 16 54 0.0 0.0 0.00 0.00 0.00 80 1007.7
20260902164852 16 54 0.0 3.2 0.00 0.00 0.00 79 1007.7
20260902163852 16 94 0.0 1.6 0.00 0.00 0.00 78 1007.6
20260902162851 16 137 0.0 0.0 0.00 0.00 0.00 78 1007.7
20260902162352 16 137 0.0 0.0 0.00 0.00 0.00 76 1007.6
20260902161853 17 137 0.0 0.0 0.00 0.00 0.00 75 1007.6
20260902161354 17 137 0.0 0.0 0.00 0.00 0.00 75 1007.6
20260902160351 17 82 0.0 3.2 0.00 0.00 0.00 74 1007.6
20260902155855 17 202 0.0 3.2 0.00 0.00 0.00 73 1007.7
20260902155354 17 331 0.0 6.4 0.00 0.00 0.00 74 1007.6
20260902154851 17 327 1.6 6.4 0.00 0.00 0.00 71 1007.7
20260902153329 18 135 1.6 4.8 0.00 0.00 0.00 74 1007.7
20260902152828 18 223 1.6 3.2 0.00 0.00 0.00 72 1007.6
20260902152327 18 18 1.6 4.8 0.00 0.00 0.00 73 1007.7
20260902151825 18 321 0.0 4.8 0.00 0.00 0.00 74 1007.7
20260902151313 18 75 0.0 1.6 0.00 0.00 0.00 73 1007.7
20260902150812 18 193 0.0 3.2 0.00 0.00 0.00 72 1007.7
20260902150310 18 189 0.0 4.8 0.00 0.00 0.00 71 1007.8
20260902145802 18 0 0.0 4.8 0.00 0.00 0.00 71 1007.9
20260902145301 18 58 0.0 3.2 0.00 0.00 0.00 71 1007.8
20260902144809 18 89 0.0 3.2 0.00 0.00 0.00 68 1007.8
20260902144301 18 324 0.0 4.8 0.00 0.00 0.00 70 1007.8
20260902143301 18 21 1.6 3.2 0.00 0.00 0.00 68 1007.9
20260902142301 18 34 0.0 4.8 0.00 0.00 0.00 67 1007.9
20260902141801 18 11 0.0 6.4 0.00 0.00 0.00 65 1007.8
20260902140805 18 14 0.0 3.2 0.00 0.00 0.00 66 1007.9
20260902135800 18 233 0.0 3.2 0.00 0.00 0.00 66 1007.8
20260902135300 18 354 0.0 6.4 0.00 0.00 0.00 65 1007.8
20260902134758 18 317 1.6 6.4 0.00 0.00 0.00 65 1007.9
20260902134258 18 182 0.0 3.2 0.00 0.00 0.00 67 1007.8
20260902133259 18 334 0.0 3.2 0.00 0.00 0.00 68 1007.8
20260902132800 18 343 0.0 1.6 0.00 0.00 0.00 68 1007.9
20260902131752 18 306 0.0 3.2 0.00 0.00 0.00 63 1007.9
20260902130755 18 353 0.0 4.8 0.00 0.00 0.00 65 1007.9
20260902130250 18 6 1.6 3.2 0.00 0.00 0.00 64 1007.9
20260902125753 18 0 1.6 4.8 0.00 0.00 0.00 65 1007.9
20260902125253 18 3 1.6 4.8 0.00 0.00 0.00 65 1007.9
20260902124751 18 104 1.6 4.8 0.00 0.00 0.00 67 1008.0
20260902124252 18 248 1.6 4.8 0.00 0.00 0.00 66 1008.0
20260902123752 18 321 0.0 4.8 0.00 0.00 0.00 65 1008.0
20260902123250 18 168 0.0 4.8 0.00 0.00 0.00 66 1008.0
20260902122748 18 0 1.6 4.8 0.00 0.00 0.00 64 1008.0
20260902121245 18 283 0.0 6.4 0.00 0.00 0.00 64 1008.1
20260902115738 18 0 1.6 3.2 0.00 0.00 0.00 67 1008.0
20260902115235 18 13 1.6 4.8 0.00 0.00 0.00 67 1008.0
20260902114719 18 226 0.0 4.8 0.00 0.00 0.00 68 1008.0
20260902114215 18 1 0.0 4.8 0.00 0.03 0.00 67 1008.0
20260902113706 18 90 0.0 3.2 0.00 0.03 0.00 68 1008.2
20260902113204 18 202 0.0 4.8 0.00 0.03 0.00 64 1008.2
20260902112710 18 265 1.6 4.8 0.00 0.03 0.00 66 1008.2
20260902112210 18 0 1.6 4.8 0.00 0.03 0.00 65 1008.2
20260902111708 17 320 1.6 4.8 0.00 0.03 0.00 64 1008.2
20260902111207 17 344 0.0 3.2 0.00 0.03 0.00 65 1008.2
20260902110709 17 30 0.0 3.2 0.00 0.03 0.00 67 1008.3
20260902110207 17 355 0.0 3.2 0.00 0.03 0.00 67 1008.4
20260902105701 17 79 0.0 3.2 0.00 0.03 0.00 66 1008.3
20260902105204 17 341 1.6 6.4 0.00 0.03 0.00 67 1008.4
20260902104704 17 3 0.0 6.4 0.00 0.03 0.00 67 1008.4
20260902104215 17 330 3.2 6.4 0.00 0.03 0.00 66 1008.4
20260902103710 17 238 1.6 3.2 0.00 0.03 0.00 68 1008.4
20260902103211 17 281 0.0 1.6 0.00 0.03 0.00 68 1008.3
20260902102704 17 279 0.0 3.2 0.00 0.03 0.00 67 1008.4
20260902102148 17 293 1.6 4.8 0.00 0.03 0.00 67 1008.4
20260902101158 17 344 1.6 3.2 0.00 0.03 0.00 68 1008.4
20260902100659 18 310 0.0 3.2 0.00 0.03 0.00 67 1008.3
20260902100153 18 338 0.0 3.2 0.00 0.03 0.00 66 1008.4
20260902095651 18 341 0.0 3.2 0.00 0.03 0.00 65 1008.4
20260902094651 17 317 0.0 1.6 0.00 0.03 0.00 68 1008.3
20260902094153 17 319 0.0 1.6 0.00 0.03 0.00 70 1008.2
20260902093652 17 314 0.0 1.6 0.00 0.03 0.00 67 1008.3
20260902092651 17 265 0.0 4.8 0.00 0.03 0.00 69 1008.4
20260902092151 17 0 0.0 4.8 0.00 0.03 0.00 71 1008.4
20260902091652 17 128 0.0 3.2 0.00 0.03 0.00 73 1008.4
20260902091151 17 264 1.6 3.2 0.00 0.03 0.00 68 1008.5
20260902090651 17 275 0.0 4.8 0.00 0.03 0.00 70 1008.4
20260902085150 17 283 0.0 3.2 0.00 0.03 0.00 70 1008.3
20260902084652 17 340 0.0 3.2 0.00 0.03 0.00 71 1008.5
20260902084152 17 313 0.0 4.8 0.00 0.03 0.00 70 1008.4
20260902083650 16 51 0.0 4.8 0.00 0.03 0.00 72 1008.3
20260902083150 16 282 0.0 3.2 0.00 0.03 0.00 73 1008.4
20260902082652 16 257 1.6 3.2 0.00 0.03 0.00 72 1008.4
20260902082150 16 286 1.6 3.2 0.00 0.03 0.00 72 1008.3
20260902081650 16 320 0.0 3.2 0.00 0.03 0.00 73 1008.3
20260902081152 16 78 1.6 3.2 0.00 0.03 0.00 73 1008.3
20260902080651 16 17 1.6 3.2 0.00 0.03 0.00 76 1008.3
20260902080149 16 326 1.6 3.2 0.00 0.03 0.00 74 1008.2
20260902075651 16 258 1.6 3.2 0.00 0.03 0.00 76 1008.2
20260902075149 16 340 0.0 3.2 0.00 0.03 0.00 75 1008.2
20260902074648 16 94 1.6 4.8 0.00 0.03 0.00 76 1008.2
20260902074148 16 30 1.6 4.8 0.00 0.03 0.00 77 1008.3
20260902073646 15 348 0.0 3.2 0.00 0.03 0.00 78 1008.3
20260902073149 15 289 0.0 1.6 0.00 0.03 0.00 77 1008.2
20260902072152 15 279 1.6 4.8 0.00 0.03 0.00 80 1008.2
20260902071652 15 4 0.0 3.2 0.00 0.03 0.00 81 1008.1
20260902071155 14 351 1.6 3.2 0.00 0.03 0.00 82 1008.2
20260902070650 13 0 0.0 1.6 0.00 0.03 0.00 82 1008.2
20260902070150 14 302 1.6 3.2 0.00 0.03 0.00 83 1008.1
20260902065655 13 251 0.0 3.2 0.00 0.03 0.00 85 1008.1
20260902065150 13 298 1.6 1.6 0.00 0.03 0.00 86 1008.0
20260902064653 12 289 0.0 1.6 0.00 0.03 0.00 89 1008.0
20260902064150 12 334 0.0 1.6 0.00 0.03 0.00 88 1007.9
20260902063650 12 313 0.0 3.2 0.00 0.03 0.00 90 1008.0
20260902063151 12 283 0.0 3.2 0.00 0.03 0.00 91 1007.9
20260902062145 12 353 0.0 1.6 0.00 0.03 0.00 91 1007.9
20260902061646 12 0 0.0 1.6 0.00 0.03 0.00 91 1007.9
20260902061135 12 353 0.0 1.6 0.00 0.03 0.00 91 1007.9
20260902060637 12 0 0.0 1.6 0.00 0.03 0.00 92 1007.8
20260902060133 12 0 0.0 1.6 0.00 0.03 0.00 92 1007.9
20260902055633 12 350 0.0 1.6 0.00 0.03 0.00 93 1007.8
20260902055137 11 350 0.0 1.6 0.00 0.03 0.00 93 1007.8
20260902054630 11 0 0.0 1.6 0.00 0.03 0.00 93 1007.8
20260902054133 11 348 0.0 0.0 0.00 0.03 0.00 94 1007.8
20260902053629 11 348 0.0 1.6 0.00 0.03 0.00 93 1007.8
20260902053131 11 348 0.0 1.6 0.00 0.03 0.00 94 1007.7
20260902052130 11 348 0.0 3.2 0.00 0.03 0.00 93 1007.7
20260902051630 11 348 0.0 3.2 0.00 0.03 0.00 93 1007.7
20260902051129 11 340 0.0 3.2 0.00 0.03 0.00 93 1007.7
20260902050629 11 334 0.0 3.2 0.00 0.03 0.00 94 1007.8
20260902045625 11 355 0.0 3.2 0.00 0.03 0.00 94 1007.7
20260902045107 11 313 0.0 3.2 0.00 0.03 0.00 94 1007.6
20260902044111 11 348 0.0 1.6 0.00 0.03 0.00 94 1007.6
20260902043604 11 348 0.0 1.6 0.00 0.03 0.00 94 1007.7
20260902043058 11 348 0.0 1.6 0.00 0.03 0.00 94 1007.7
20260902042550 12 350 0.0 3.2 0.00 0.03 0.00 94 1007.6
20260902041050 12 0 1.6 1.6 0.00 0.03 0.00 94 1007.6
20260902040550 12 289 0.0 1.6 0.00 0.03 0.00 95 1007.7
20260902040048 12 0 0.0 1.6 0.00 0.03 0.00 95 1007.6
20260902035543 12 0 0.0 1.6 0.00 0.03 0.00 95 1007.5
20260902035044 13 331 0.0 0.0 0.00 0.03 0.00 95 1007.5
20260902034541 12 330 0.0 0.0 0.00 0.03 0.00 95 1007.5
20260902034033 12 330 0.0 0.0 0.00 0.03 0.00 95 1007.5
20260902033533 13 330 0.0 0.0 0.00 0.03 0.00 95 1007.4
20260902033033 13 330 0.0 0.0 0.00 0.03 0.00 95 1007.5
20260902032505 13 331 0.0 3.2 0.00 0.03 0.00 95 1007.4
20260902032006 13 330 0.0 3.2 0.00 0.03 0.00 95 1007.4
20260902031507 13 316 0.0 0.0 0.00 0.03 0.00 95 1007.4
20260902031004 13 316 0.0 0.0 0.00 0.03 0.00 95 1007.4
20260902030508 13 316 0.0 0.0 0.00 0.03 0.00 95 1007.4
20260902025951 13 316 0.0 0.0 0.00 0.03 0.00 95 1007.4
20260902025451 13 316 0.0 0.0 0.00 0.03 0.00 95 1007.4
20260902024950 13 320 0.0 1.6 0.00 0.03 0.00 95 1007.4
20260902023950 13 358 0.0 0.0 0.00 0.03 0.00 95 1007.4
20260902022951 13 358 0.0 1.6 0.00 0.03 0.00 95 1007.4
20260902022447 13 358 0.0 1.6 0.00 0.03 0.00 95 1007.3
20260902021947 13 357 0.0 0.0 0.00 0.03 0.00 95 1007.4
20260902021446 13 357 0.0 1.6 0.00 0.03 0.00 95 1007.3
20260902020946 13 357 0.0 1.6 0.00 0.03 0.00 95 1007.3
20260902020450 13 343 0.0 1.6 0.00 0.03 0.00 95 1007.3
20260902015951 13 343 0.0 1.6 0.00 0.03 0.00 95 1007.3
20260902015450 13 343 0.0 0.0 0.00 0.03 0.00 94 1007.4
20260902014950 13 343 0.0 0.0 0.00 0.03 0.00 95 1007.3
20260902013949 13 343 0.0 0.0 0.00 0.03 0.00 95 1007.3
20260902013450 13 343 0.0 0.0 0.00 0.03 0.00 95 1007.3
20260902012949 13 343 0.0 0.0 0.00 0.03 0.00 95 1007.4
20260902011950 13 343 0.0 0.0 0.00 0.03 0.00 95 1007.3
20260902011451 13 343 0.0 0.0 0.00 0.03 0.00 95 1007.3
20260902010949 13 343 0.0 0.0 0.00 0.03 0.00 95 1007.2
20260902010449 13 343 0.0 0.0 0.00 0.03 0.00 95 1007.4
20260902005451 13 343 0.0 0.0 0.00 0.03 0.00 95 1007.4
20260902004450 13 343 0.0 0.0 0.00 0.03 0.00 95 1007.4
20260902003950 12 343 0.0 0.0 0.00 0.03 0.00 95 1007.4
20260902002449 12 343 0.0 0.0 0.00 0.03 0.00 94 1007.3
20260902001951 12 343 0.0 0.0 0.00 0.03 0.00 94 1007.3
20260902001449 12 343 0.0 0.0 0.00 0.03 0.00 95 1007.3
20260902000950 12 343 0.0 0.0 0.00 0.03 0.00 94 1007.3
20260902000452 12 343 0.0 0.0 0.00 0.03 0.00 94 1007.3
20260901235950 12 343 0.0 0.0 0.00 0.03 0.00 94 1007.3
20260901235450 12 343 0.0 0.0 0.00 0.03 0.00 94 1007.3
20260901234950 12 343 0.0 0.0 0.00 0.03 0.00 93 1007.3
20260901234449 12 343 0.0 0.0 0.00 0.03 0.00 93 1007.3
20260901233950 12 343 0.0 0.0 0.00 0.03 0.00 93 1007.4
20260901233450 12 343 0.0 0.0 0.00 0.03 0.00 93 1007.4
20260901232950 12 343 0.0 0.0 0.00 0.03 0.00 93 1007.4
20260901232450 12 343 0.0 0.0 0.00 0.03 0.00 93 1007.3
20260901231953 12 343 0.0 0.0 0.00 0.03 0.00 93 1007.4
20260901231450 12 343 0.0 0.0 0.00 0.03 0.00 93 1007.5
20260901230949 12 343 0.0 0.0 0.00 0.03 0.00 93 1007.5
20260901230449 12 343 0.0 0.0 0.00 0.03 0.00 93 1007.6
20260901225949 12 343 0.0 0.0 0.00 0.03 0.00 93 1007.6
20260901224951 12 343 0.0 0.0 0.00 0.03 0.00 93 1007.6
20260901223949 12 343 0.0 0.0 0.00 0.03 0.00 93 1007.7
20260901222950 12 343 0.0 0.0 0.00 0.03 0.00 93 1007.5
20260901222450 12 343 0.0 0.0 0.00 0.03 0.00 93 1007.6
20260901221951 12 343 0.0 0.0 0.00 0.03 0.00 93 1007.6
20260901221449 12 343 0.0 0.0 0.00 0.03 0.00 93 1007.6
20260901220949 12 343 0.0 0.0 0.00 0.03 0.00 93 1007.6
20260901220454 12 343 0.0 0.0 0.00 0.03 0.00 93 1007.6
20260901215950 13 343 0.0 0.0 0.00 0.03 0.00 93 1007.6
20260901215450 13 343 0.0 0.0 0.00 0.03 0.00 93 1007.6
20260901214950 13 343 0.0 0.0 0.00 0.03 0.00 93 1007.5
20260901214450 13 343 0.0 0.0 0.00 0.03 0.00 93 1007.6
20260901213950 13 343 0.0 0.0 0.00 0.03 0.00 93 1007.6
20260901213450 13 343 0.0 0.0 0.00 0.03 0.00 93 1007.6
20260901212949 13 343 0.0 0.0 0.00 0.03 0.00 93 1007.6
20260901212449 13 343 0.0 0.0 0.00 0.03 0.00 93 1007.6
20260901211951 13 343 0.0 0.0 0.00 0.03 0.00 93 1007.6
20260901211452 13 343 0.0 0.0 0.00 0.03 0.00 93 1007.6
20260901210952 13 343 0.0 0.0 0.00 0.03 0.00 93 1007.5
20260901210449 13 343 0.0 0.0 0.00 0.03 0.00 93 1007.6
20260901205949 13 343 0.0 0.0 0.00 0.03 0.03 93 1007.6
20260901204950 13 343 0.0 0.0 0.00 0.03 0.03 93 1007.5
20260901204451 13 343 0.0 0.0 0.00 0.03 0.03 93 1007.6
20260901203949 13 343 0.0 0.0 0.00 0.03 0.03 93 1007.6
20260901203450 13 343 0.0 0.0 0.00 0.03 0.03 93 1007.6
20260901202950 13 343 0.0 0.0 0.00 0.03 0.03 93 1007.6
20260901202450 13 343 0.0 0.0 0.00 0.03 0.03 93 1007.6
20260901201949 13 343 0.0 0.0 0.00 0.03 0.03 93 1007.6
20260901200450 13 343 0.0 0.0 0.00 0.03 0.03 93 1007.6
20260901195950 13 343 0.0 0.0 0.00 0.03 0.03 93 1007.5
20260901195450 13 343 0.0 0.0 0.00 0.03 0.03 93 1007.5
20260901194449 13 343 0.0 0.0 0.00 0.03 0.03 92 1007.6
20260901193438 13 343 0.0 0.0 0.00 0.03 0.03 92 1007.5